Location: Coll
(42.4728°N, 0.7714°E)
Time: 12:55:31
(UTC+00:00)

Cosmos 2228 - Pass Details

Date: 23 October 2020
Orbit: 590 x 617 km, 82.5° (Epoch: 01 December)

Event Time Altitude Azimuth Distance (km) Brightness Sun altitude
Rises 05:14:17 0° 351° (N) 2,871 6.3 -12.7°
Reaches altitude 10° 05:16:30 10° 351° (N) 1,967 5.5 -12.3°
Maximum altitude 05:20:52 85° 263° (W) 620 3.0 -11.5°
Drops below altitude 10° 05:25:14 10° 175° (S) 1,966 5.8 -10.7°
Sets 05:27:27 0° 175° (S) 2,869 6.6 -10.3°
